Wetterdaten: Sonntag, 17.12.2006
Datum Zeit Temp. a Sch. Temp. a Son. Temp. a Bod. Feuchte a. Luftdruck Regen Wind Richtung Richtung Sonnenschein Helligkeit Taupunkt Windchill
17.12.2006 00:02 4,6 C 4,6 C 3,2 C 90 % 1023 hPa 0,0 l/m 1,6 m/s (1 Bft) W-SW22.5 250 0 min 0 lux 3,1 C 4,6 C
17.12.2006 00:07 4,5 C 4,6 C 3,2 C 90 % 1023 hPa 0,0 l/m 1,7 m/s (2 Bft) W-SW 250 0 min 0 lux 3,0 C 4,5 C
17.12.2006 00:12 4,4 C 4,5 C 3,1 C 90 % 1023 hPa 0,0 l/m 1,6 m/s (1 Bft) W 260 0 min 0 lux 2,9 C 4,4 C
17.12.2006 00:17 4,3 C 4,4 C 3,0 C 90 % 1023 hPa 0,0 l/m 2,1 m/s (2 Bft) W-SW22.5 250 0 min 0 lux 2,8 C 3,3 C
17.12.2006 00:22 4,4 C 4,4 C 3,0 C 91 % 1023 hPa 0,0 l/m 2,7 m/s (2 Bft) W-SW22.5 245 0 min 0 lux 3,1 C 1,7 C
17.12.2006 00:27 4,4 C 4,4 C 3,0 C 91 % 1023 hPa 0,0 l/m 2,5 m/s (2 Bft) W-SW22.5 245 0 min 0 lux 3,1 C 2,2 C
17.12.2006 00:32 4,4 C 4,4 C 3,0 C 91 % 1023 hPa 0,0 l/m 2,3 m/s (2 Bft) W22.5 260 0 min 0 lux 3,1 C 2,8 C
17.12.2006 00:37 4,3 C 4,4 C 2,9 C 91 % 1023 hPa 0,0 l/m 2,2 m/s (2 Bft) W-SW22.5 250 0 min 0 lux 3,0 C 3,0 C
17.12.2006 00:42 4,4 C 4,3 C 3,0 C 91 % 1023 hPa 0,0 l/m 2,8 m/s (2 Bft) W-SW22.5 250 0 min 0 lux 3,1 C 1,3 C
17.12.2006 00:47 4,4 C 4,2 C 3,0 C 92 % 1023 hPa 0,0 l/m 2,6 m/s (2 Bft) W-SW22.5 250 0 min 0 lux 3,2 C 1,9 C
17.12.2006 00:52 4,2 C 4,2 C 2,8 C 91 % 1023 hPa 0,0 l/m 2,8 m/s (2 Bft) W-SW22.5 255 0 min 0 lux 2,9 C 1,2 C
17.12.2006 00:57 4,1 C 4,1 C 2,5 C 91 % 1024 hPa 0,0 l/m 2,3 m/s (2 Bft) W-SW22.5 250 0 min 0 lux 2,8 C 2,5 C
17.12.2006 01:02 3,8 C 3,9 C 2,5 C 92 % 1024 hPa 0,0 l/m 2,4 m/s (2 Bft) W22.5 270 0 min 0 lux 2,6 C 1,9 C
17.12.2006 01:07 3,8 C 3,9 C 2,0 C 92 % 1024 hPa 0,0 l/m 1,6 m/s (1 Bft) W-SW22.5 255 0 min 0 lux 2,6 C 3,8 C
17.12.2006 01:12 3,6 C 3,7 C 1,7 C 92 % 1024 hPa 0,0 l/m 2,0 m/s (2 Bft) W22.5 265 0 min 0 lux 2,4 C 3,0 C
17.12.2006 01:17 3,3 C 3,6 C 1,8 C 92 % 1024 hPa 0,0 l/m 1,5 m/s (1 Bft) W-SW22.5 255 0 min 0 lux 2,1 C 3,3 C
17.12.2006 01:22 3,8 C 3,5 C 1,8 C 92 % 1024 hPa 0,0 l/m 2,6 m/s (2 Bft) W-SW 245 0 min 0 lux 2,6 C 1,1 C
17.12.2006 01:27 3,6 C 3,4 C 2,1 C 93 % 1024 hPa 0,0 l/m 2,2 m/s (2 Bft) W-SW22.5 255 0 min 0 lux 2,6 C 2,1 C
17.12.2006 01:32 3,7 C 3,4 C 2,1 C 93 % 1024 hPa 0,0 l/m 1,8 m/s (2 Bft) W-SW 240 0 min 0 lux 2,7 C 3,6 C
17.12.2006 01:37 3,5 C 3,3 C 1,9 C 93 % 1024 hPa 0,0 l/m 1,9 m/s (2 Bft) W-SW22.5 255 0 min 0 lux 2,5 C 3,2 C
17.12.2006 01:42 3,4 C 3,3 C 1,5 C 93 % 1024 hPa 0,0 l/m 2,5 m/s (2 Bft) W-SW22.5 250 0 min 0 lux 2,4 C 1,2 C
17.12.2006 01:47 3,3 C 3,2 C 1,3 C 93 % 1024 hPa 0,0 l/m 2,0 m/s (2 Bft) W22.5 265 0 min 0 lux 2,3 C 2,5 C
17.12.2006 01:52 3,1 C 3,1 C 1,2 C 93 % 1024 hPa 0,0 l/m 1,9 m/s (2 Bft) W22.5 260 0 min 0 lux 2,1 C 2,8 C
17.12.2006 01:57 3,3 C 3,1 C 1,7 C 93 % 1024 hPa 0,0 l/m 1,6 m/s (1 Bft) W22.5 260 0 min 0 lux 2,3 C 3,3 C
17.12.2006 02:02 3,3 C 3,1 C 1,9 C 93 % 1024 hPa 0,0 l/m 1,5 m/s (1 Bft) W-SW 240 0 min 0 lux 2,3 C 3,3 C
17.12.2006 02:07 3,3 C 3,1 C 1,3 C 93 % 1024 hPa 0,0 l/m 1,9 m/s (2 Bft) W-SW22.5 240 0 min 0 lux 2,3 C 2,9 C
17.12.2006 02:12 3,3 C 3,0 C 1,4 C 93 % 1024 hPa 0,0 l/m 2,7 m/s (2 Bft) W-SW45 255 0 min 0 lux 2,3 C 0,5 C
17.12.2006 02:17 3,3 C 2,9 C 1,6 C 93 % 1024 hPa 0,0 l/m 2,3 m/s (2 Bft) W22.5 265 0 min 0 lux 2,3 C 1,6 C
17.12.2006 02:22 3,1 C 2,9 C 1,5 C 93 % 1024 hPa 0,0 l/m 2,6 m/s (2 Bft) SW22.5 235 0 min 0 lux 2,1 C 0,5 C
17.12.2006 02:27 3,1 C 2,8 C 1,2 C 93 % 1024 hPa 0,0 l/m 1,6 m/s (2 Bft) W-SW22.5 240 0 min 0 lux 2,1 C 3,1 C
17.12.2006 02:32 3,0 C 2,8 C 1,3 C 92 % 1024 hPa 0,0 l/m 3,6 m/s (3 Bft) W-SW22.5 255 0 min 0 lux 1,8 C -2,1 C
17.12.2006 02:37 3,2 C 2,8 C 1,5 C 92 % 1024 hPa 0,0 l/m 4,1 m/s (3 Bft) W-SW67.5 255 0 min 0 lux 2,0 C -3,0 C
17.12.2006 02:42 3,1 C 2,8 C 1,3 C 92 % 1025 hPa 0,0 l/m 3,1 m/s (2 Bft) W-SW22.5 250 0 min 0 lux 1,9 C -0,8 C
17.12.2006 02:47 3,1 C 2,8 C 1,4 C 92 % 1025 hPa 0,0 l/m 2,5 m/s (2 Bft) W22.5 270 0 min 0 lux 1,9 C 0,8 C
17.12.2006 02:52 2,7 C 2,7 C 1,2 C 92 % 1025 hPa 0,0 l/m 1,0 m/s (1 Bft) W 260 0 min 0 lux 1,5 C 2,7 C
17.12.2006 02:57 2,6 C 2,6 C 1,0 C 92 % 1025 hPa 0,0 l/m 1,4 m/s (1 Bft) W-SW 255 0 min 0 lux 1,4 C 2,6 C
17.12.2006 03:02 2,5 C 2,6 C 1,0 C 91 % 1025 hPa 0,0 l/m 0,4 m/s (1 Bft) W 260 0 min 0 lux 1,2 C 2,5 C
17.12.2006 03:07 2,2 C 2,4 C 0,7 C 91 % 1025 hPa 0,0 l/m 1,2 m/s (1 Bft) W-SW22.5 250 0 min 0 lux 0,9 C 2,2 C
17.12.2006 03:12 2,4 C 2,3 C 0,7 C 92 % 1024 hPa 0,0 l/m 1,6 m/s (2 Bft) W 260 0 min 0 lux 1,2 C 2,4 C
17.12.2006 03:17 1,9 C 2,2 C 0,3 C 92 % 1024 hPa 0,0 l/m 0,5 m/s (1 Bft) W22.5 270 0 min 0 lux 0,7 C 1,9 C
17.12.2006 03:22 1,8 C 2,1 C 0,4 C 92 % 1024 hPa 0,0 l/m 1,3 m/s (1 Bft) W22.5 265 0 min 0 lux 0,6 C 1,8 C
17.12.2006 03:27 2,1 C 2,1 C 0,4 C 92 % 1024 hPa 0,0 l/m 1,6 m/s (1 Bft) W22.5 270 0 min 0 lux 0,9 C 2,1 C
17.12.2006 03:32 2,3 C 2,1 C 0,9 C 92 % 1025 hPa 0,0 l/m 1,8 m/s (2 Bft) W22.5 260 0 min 0 lux 1,1 C 2,3 C
17.12.2006 03:37 1,9 C 2,0 C 0,6 C 93 % 1025 hPa 0,0 l/m 1,0 m/s (1 Bft) W-SW 250 0 min 0 lux 0,9 C 1,9 C
17.12.2006 03:42 1,8 C 1,9 C 0,4 C 93 % 1025 hPa 0,0 l/m 1,6 m/s (2 Bft) W 260 0 min 0 lux 0,8 C 1,8 C
17.12.2006 03:47 1,8 C 1,8 C 0,7 C 93 % 1025 hPa 0,0 l/m 1,4 m/s (1 Bft) W22.5 260 0 min 0 lux 0,8 C 1,8 C
17.12.2006 03:52 2,1 C 1,8 C 0,7 C 94 % 1024 hPa 0,0 l/m 2,3 m/s (2 Bft) W22.5 260 0 min 0 lux 1,2 C 0,5 C
17.12.2006 03:57 2,1 C 1,8 C 0,8 C 94 % 1024 hPa 0,0 l/m 1,8 m/s (2 Bft) W22.5 270 0 min 0 lux 1,2 C 1,9 C
17.12.2006 04:02 2,2 C 1,8 C 0,5 C 94 % 1024 hPa 0,0 l/m 2,7 m/s (2 Bft) W22.5 265 0 min 0 lux 1,3 C -0,7 C
17.12.2006 04:07 2,3 C 1,7 C 0,7 C 94 % 1024 hPa 0,0 l/m 1,0 m/s (1 Bft) SW 235 0 min 0 lux 1,4 C 2,3 C
17.12.2006 04:12 1,8 C 1,6 C 0,5 C 94 % 1024 hPa 0,0 l/m 0,0 m/s (0 Bft) SW 235 0 min 0 lux 0,9 C 1,8 C
17.12.2006 04:17 1,2 C 1,6 C 0,0 C 94 % 1024 hPa 0,0 l/m 0,0 m/s (0 Bft) SW 235 0 min 0 lux 0,3 C 1,2 C
17.12.2006 04:22 1,2 C 1,5 C 0,0 C 94 % 1024 hPa 0,0 l/m 0,9 m/s (1 Bft) W-SW22.5 255 0 min 0 lux 0,3 C 1,2 C
17.12.2006 04:27 0,9 C 1,4 C -0,1 C 94 % 1024 hPa 0,0 l/m 0,8 m/s (1 Bft) W 260 0 min 0 lux 0,0 C 0,9 C
17.12.2006 04:32 0,9 C 1,3 C 0,0 C 94 % 1024 hPa 0,0 l/m 1,0 m/s (1 Bft) W 265 0 min 0 lux 0,0 C 0,9 C
17.12.2006 04:37 0,8 C 1,3 C -0,2 C 95 % 1024 hPa 0,0 l/m 0,0 m/s (0 Bft) W 265 0 min 0 lux 0,1 C 0,8 C
17.12.2006 04:42 0,8 C 1,2 C -0,2 C 95 % 1024 hPa 0,0 l/m 0,0 m/s (0 Bft) W 265 0 min 0 lux 0,1 C 0,8 C
17.12.2006 04:47 0,9 C 1,0 C -0,1 C 95 % 1024 hPa 0,0 l/m 0,0 m/s (0 Bft) W 265 0 min 0 lux 0,2 C 0,9 C
17.12.2006 04:52 0,8 C 1,0 C 0,0 C 95 % 1024 hPa 0,0 l/m 0,0 m/s (0 Bft) W 265 0 min 0 lux 0,1 C 0,8 C
17.12.2006 04:57 0,6 C 1,0 C -0,5 C 95 % 1024 hPa 0,0 l/m 0,0 m/s (0 Bft) W 265 0 min 0 lux -0,1 C 0,6 C
17.12.2006 05:02 0,5 C 0,9 C -0,1 C 95 % 1024 hPa 0,0 l/m 0,0 m/s (0 Bft) W 265 0 min 0 lux -0,2 C 0,5 C
17.12.2006 05:07 0,5 C 0,9 C 0,0 C 95 % 1024 hPa 0,0 l/m 0,0 m/s (0 Bft) W 265 0 min 0 lux -0,2 C 0,5 C
17.12.2006 05:12 0,7 C 0,9 C -0,1 C 95 % 1024 hPa 0,0 l/m 0,0 m/s (0 Bft) W 265 0 min 0 lux -0,0 C 0,7 C
17.12.2006 05:17 0,7 C 0,8 C -0,1 C 95 % 1024 hPa 0,0 l/m 0,0 m/s (0 Bft) W 265 0 min 0 lux -0,0 C 0,7 C
17.12.2006 05:22 0,4 C 0,7 C -0,1 C 95 % 1024 hPa 0,0 l/m 0,0 m/s (0 Bft) W 265 0 min 0 lux -0,3 C 0,4 C
17.12.2006 05:27 0,5 C 0,7 C -0,7 C 95 % 1024 hPa 0,0 l/m 0,0 m/s (0 Bft) W 265 0 min 0 lux -0,2 C 0,5 C
17.12.2006 05:32 0,5 C 0,6 C -0,2 C 95 % 1024 hPa 0,0 l/m 0,0 m/s (0 Bft) W 265 0 min 0 lux -0,2 C 0,5 C
17.12.2006 05:37 0,6 C 0,6 C 0,0 C 95 % 1024 hPa 0,0 l/m 0,0 m/s (0 Bft) W 265 0 min 0 lux -0,1 C 0,6 C
17.12.2006 05:42 0,6 C 0,7 C 0,1 C 95 % 1024 hPa 0,0 l/m 0,0 m/s (0 Bft) W 265 0 min 0 lux -0,1 C 0,6 C
17.12.2006 05:47 0,6 C 0,7 C 0,1 C 95 % 1024 hPa 0,0 l/m 0,0 m/s (0 Bft) W 265 0 min 0 lux -0,1 C 0,6 C
17.12.2006 05:52 0,7 C 0,7 C 0,0 C 95 % 1024 hPa 0,0 l/m 0,0 m/s (0 Bft) W 265 0 min 0 lux -0,0 C 0,7 C
17.12.2006 05:57 0,7 C 0,7 C 0,1 C 95 % 1024 hPa 0,0 l/m 0,0 m/s (0 Bft) W 265 0 min 0 lux -0,0 C 0,7 C
17.12.2006 06:02 0,7 C 0,7 C 0,0 C 95 % 1024 hPa 0,0 l/m 0,0 m/s (0 Bft) W 265 0 min 0 lux -0,0 C 0,7 C
17.12.2006 06:06 0,4 C 0,7 C -0,1 C 95 % 1024 hPa 0,0 l/m 0,0 m/s (0 Bft) W 265 0 min 0 lux -0,3 C 0,4 C
17.12.2006 06:12 0,3 C 0,7 C 0,0 C 95 % 1024 hPa 0,0 l/m 0,0 m/s (0 Bft) W 265 0 min 0 lux -0,4 C 0,3 C
17.12.2006 06:17 0,3 C 0,6 C -0,4 C 95 % 1024 hPa 0,0 l/m 0,0 m/s (0 Bft) W 265 0 min 0 lux -0,4 C 0,3 C
17.12.2006 06:22 0,4 C 0,6 C -0,3 C 95 % 1024 hPa 0,0 l/m 0,0 m/s (0 Bft) W 265 0 min 0 lux -0,3 C 0,4 C
17.12.2006 06:27 0,5 C 0,6 C -0,4 C 95 % 1024 hPa 0,0 l/m 0,0 m/s (0 Bft) W 265 0 min 0 lux -0,2 C 0,5 C
17.12.2006 06:32 0,5 C 0,7 C -0,2 C 95 % 1024 hPa 0,0 l/m 0,0 m/s (0 Bft) W 265 0 min 0 lux -0,2 C 0,5 C
17.12.2006 06:37 0,6 C 0,7 C 0,0 C 95 % 1024 hPa 0,0 l/m 0,0 m/s (0 Bft) W 265 0 min 0 lux -0,1 C 0,6 C
17.12.2006 06:42 0,8 C 0,7 C -0,1 C 95 % 1024 hPa 0,0 l/m 0,0 m/s (0 Bft) W 265 0 min 0 lux 0,1 C 0,8 C
17.12.2006 06:47 0,8 C 0,8 C 0,1 C 95 % 1024 hPa 0,0 l/m 0,0 m/s (0 Bft) W 265 0 min 0 lux 0,1 C 0,8 C
17.12.2006 06:52 0,7 C 0,8 C 0,0 C 95 % 1024 hPa 0,0 l/m 0,0 m/s (0 Bft) W 265 0 min 0 lux -0,0 C 0,7 C
17.12.2006 06:57 0,5 C 0,8 C -0,3 C 95 % 1024 hPa 0,0 l/m 0,0 m/s (0 Bft) W 265 0 min 0 lux -0,2 C 0,5 C
17.12.2006 07:02 0,4 C 0,7 C -0,2 C 95 % 1024 hPa 0,0 l/m 0,0 m/s (0 Bft) W 265 0 min 0 lux -0,3 C 0,4 C
17.12.2006 07:07 0,4 C 0,6 C -0,3 C 95 % 1024 hPa 0,0 l/m 0,0 m/s (0 Bft) W 265 0 min 0 lux -0,3 C 0,4 C
17.12.2006 07:12 0,6 C 0,6 C 0,1 C 95 % 1024 hPa 0,0 l/m 0,0 m/s (0 Bft) W 265 0 min 0 lux -0,1 C 0,6 C
17.12.2006 07:17 0,8 C 0,7 C -0,2 C 95 % 1024 hPa 0,0 l/m 0,0 m/s (0 Bft) W 265 0 min 0 lux 0,1 C 0,8 C
17.12.2006 07:22 0,9 C 0,7 C 0,0 C 95 % 1024 hPa 0,0 l/m 0,0 m/s (0 Bft) W 265 0 min 0 lux 0,2 C 0,9 C
17.12.2006 07:27 0,7 C 0,8 C -0,1 C 95 % 1025 hPa 0,0 l/m 0,0 m/s (0 Bft) W 265 0 min 0 lux -0,0 C 0,7 C
17.12.2006 07:32 0,8 C 0,8 C 0,1 C 95 % 1025 hPa 0,0 l/m 0,3 m/s (0 Bft) W 265 0 min 0 lux 0,1 C 0,8 C
17.12.2006 07:37 0,7 C 0,8 C -0,3 C 95 % 1025 hPa 0,0 l/m 0,0 m/s (0 Bft) W 265 0 min 0 lux -0,0 C 0,7 C
17.12.2006 07:42 0,6 C 0,8 C 0,1 C 95 % 1025 hPa 0,0 l/m 0,0 m/s (0 Bft) W 265 0 min 0 lux -0,1 C 0,6 C
17.12.2006 07:47 0,7 C 0,8 C 0,1 C 95 % 1025 hPa 0,0 l/m 0,0 m/s (0 Bft) W 265 0 min 0 lux -0,0 C 0,7 C
17.12.2006 07:52 0,8 C 0,9 C 0,2 C 95 % 1025 hPa 0,0 l/m 0,0 m/s (0 Bft) W 265 0 min 0 lux 0,1 C 0,8 C
17.12.2006 07:57 0,8 C 0,9 C 0,0 C 95 % 1025 hPa 0,0 l/m 0,0 m/s (0 Bft) W 265 0 min 0 lux 0,1 C 0,8 C
17.12.2006 08:02 0,9 C 0,9 C 0,0 C 95 % 1025 hPa 0,0 l/m 0,0 m/s (0 Bft) W 265 0 min 0 lux 0,2 C 0,9 C
17.12.2006 08:07 1,1 C 0,9 C 0,2 C 95 % 1025 hPa 0,0 l/m 0,0 m/s (0 Bft) W 265 0 min 46 lux 0,4 C 1,1 C
17.12.2006 08:12 1,1 C 0,9 C 0,0 C 95 % 1025 hPa 0,0 l/m 0,0 m/s (0 Bft) W 265 0 min 72 lux 0,4 C 1,1 C
17.12.2006 08:17 1,1 C 1,0 C 0,1 C 95 % 1025 hPa 0,0 l/m 0,0 m/s (0 Bft) W 265 0 min 137 lux 0,4 C 1,1 C
17.12.2006 08:22 1,1 C 1,0 C 0,2 C 95 % 1025 hPa 0,0 l/m 0,0 m/s (0 Bft) W 265 0 min 163 lux 0,4 C 1,1 C
17.12.2006 08:27 1,1 C 1,1 C 0,4 C 95 % 1025 hPa 0,0 l/m 0,0 m/s (0 Bft) W 265 0 min 160 lux 0,4 C 1,1 C
17.12.2006 08:32 1,2 C 1,2 C 0,4 C 95 % 1025 hPa 0,0 l/m 0,0 m/s (0 Bft) W 265 0 min 254 lux 0,5 C 1,2 C
17.12.2006 08:37 1,2 C 1,2 C 0,4 C 95 % 1025 hPa 0,0 l/m 0,0 m/s (0 Bft) W 265 0 min 369 lux 0,5 C 1,2 C
17.12.2006 08:42 1,2 C 1,2 C 0,3 C 95 % 1025 hPa 0,0 l/m 0,0 m/s (0 Bft) W 265 0 min 547 lux 0,5 C 1,2 C
17.12.2006 08:47 1,3 C 1,3 C 0,5 C 95 % 1025 hPa 0,0 l/m 0,0 m/s (0 Bft) W 265 0 min 632 lux 0,6 C 1,3 C
17.12.2006 08:52 1,6 C 1,3 C 0,5 C 95 % 1025 hPa 0,0 l/m 0,0 m/s (0 Bft) W 265 0 min 830 lux 0,9 C 1,6 C
17.12.2006 08:57 1,7 C 1,4 C 0,7 C 95 % 1025 hPa 0,0 l/m 0,0 m/s (0 Bft) W 265 0 min 2,07 klux 1,0 C 1,7 C
17.12.2006 09:02 1,9 C 1,5 C 0,9 C 95 % 1025 hPa 0,0 l/m 0,0 m/s (0 Bft) W 265 0 min 1,03 klux 1,2 C 1,9 C
17.12.2006 09:07 2,0 C 1,5 C 0,8 C 95 % 1025 hPa 0,0 l/m 0,0 m/s (0 Bft) W 265 0 min 1,81 klux 1,3 C 2,0 C
17.12.2006 09:12 1,7 C 1,6 C 0,8 C 95 % 1025 hPa 0,0 l/m 0,0 m/s (0 Bft) W 265 0 min 3,28 klux 1,0 C 1,7 C
17.12.2006 09:17 1,7 C 1,6 C 0,7 C 95 % 1025 hPa 0,0 l/m 0,0 m/s (0 Bft) W 265 0 min 4,84 klux 1,0 C 1,7 C
17.12.2006 09:22 1,9 C 1,7 C 1,0 C 95 % 1025 hPa 0,0 l/m 0,0 m/s (0 Bft) W 265 0 min 5,96 klux 1,2 C 1,9 C
17.12.2006 09:27 2,2 C 1,8 C 1,1 C 95 % 1025 hPa 0,0 l/m 0,0 m/s (0 Bft) W 265 0 min 5,28 klux 1,5 C 2,2 C
17.12.2006 09:32 2,3 C 2,0 C 1,3 C 95 % 1025 hPa 0,0 l/m 0,0 m/s (0 Bft) W 265 0 min 5,76 klux 1,6 C 2,3 C
17.12.2006 09:37 2,5 C 2,1 C 1,4 C 95 % 1025 hPa 0,0 l/m 0,0 m/s (0 Bft) W 265 0 min 4,33 klux 1,8 C 2,5 C
17.12.2006 09:42 2,7 C 2,2 C 1,5 C 95 % 1025 hPa 0,0 l/m 0,0 m/s (0 Bft) W 265 0 min 7,43 klux 2,0 C 2,7 C
17.12.2006 09:47 2,8 C 2,3 C 1,6 C 95 % 1025 hPa 0,0 l/m 0,0 m/s (0 Bft) W 265 0 min 5,80 klux 2,1 C 2,8 C
17.12.2006 09:52 3,1 C 2,5 C 1,7 C 95 % 1025 hPa 0,0 l/m 0,0 m/s (0 Bft) W 265 0 min 5,09 klux 2,4 C 3,1 C
17.12.2006 09:57 3,3 C 2,6 C 1,9 C 95 % 1025 hPa 0,0 l/m 0,0 m/s (0 Bft) W 265 5 min 14,7 klux 2,6 C 3,3 C
17.12.2006 10:02 3,3 C 2,7 C 1,9 C 95 % 1025 hPa 0,0 l/m 0,0 m/s (0 Bft) W 265 0 min 5,47 klux 2,6 C 3,3 C
17.12.2006 10:07 3,3 C 2,8 C 1,9 C 95 % 1025 hPa 0,0 l/m 0,0 m/s (0 Bft) S-SW 195 0 min 6,42 klux 2,6 C 3,3 C
17.12.2006 10:12 3,5 C 2,8 C 1,9 C 95 % 1025 hPa 0,0 l/m 0,0 m/s (0 Bft) S-SW 195 0 min 6,98 klux 2,8 C 3,5 C
17.12.2006 10:17 3,5 C 3,0 C 2,1 C 95 % 1025 hPa 0,0 l/m 0,0 m/s (0 Bft) S-SW 195 0 min 6,96 klux 2,8 C 3,5 C
17.12.2006 10:22 3,4 C 3,2 C 2,2 C 95 % 1025 hPa 0,0 l/m 0,0 m/s (0 Bft) S-SW 195 0 min 7,27 klux 2,7 C 3,4 C
17.12.2006 10:27 3,6 C 3,2 C 2,2 C 95 % 1025 hPa 0,0 l/m 0,0 m/s (0 Bft) S-SW 195 0 min 5,00 klux 2,9 C 3,6 C
17.12.2006 10:32 3,6 C 3,3 C 2,2 C 95 % 1025 hPa 0,0 l/m 0,0 m/s (0 Bft) S-SW 195 0 min 3,83 klux 2,9 C 3,6 C
17.12.2006 10:37 3,6 C 3,3 C 2,2 C 95 % 1025 hPa 0,0 l/m 0,0 m/s (0 Bft) S-SW 195 0 min 3,90 klux 2,9 C 3,6 C
17.12.2006 10:42 3,7 C 3,3 C 2,2 C 95 % 1025 hPa 0,0 l/m 0,0 m/s (0 Bft) S-SW 195 0 min 3,96 klux 3,0 C 3,7 C
17.12.2006 10:47 3,6 C 3,3 C 2,3 C 94 % 1025 hPa 0,0 l/m 0,0 m/s (0 Bft) S-SW 195 0 min 4,64 klux 2,7 C 3,6 C
17.12.2006 10:52 3,6 C 3,4 C 2,2 C 94 % 1025 hPa 0,0 l/m 0,0 m/s (0 Bft) S-SW 195 0 min 4,44 klux 2,7 C 3,6 C
17.12.2006 10:57 3,5 C 3,4 C 2,2 C 94 % 1025 hPa 0,0 l/m 0,0 m/s (0 Bft) S-SW 195 0 min 5,70 klux 2,6 C 3,5 C
17.12.2006 11:02 3,6 C 3,4 C 2,3 C 93 % 1025 hPa 0,0 l/m 0,0 m/s (0 Bft) S-SW 195 0 min 5,56 klux 2,6 C 3,6 C
17.12.2006 11:07 3,8 C 3,6 C 2,5 C 93 % 1025 hPa 0,0 l/m 0,0 m/s (0 Bft) S-SW 195 0 min 6,67 klux 2,8 C 3,8 C
17.12.2006 11:12 3,8 C 3,7 C 2,5 C 92 % 1025 hPa 0,0 l/m 0,0 m/s (0 Bft) S-SW 195 0 min 8,07 klux 2,6 C 3,8 C
17.12.2006 11:17 4,0 C 3,8 C 2,5 C 91 % 1025 hPa 0,0 l/m 0,0 m/s (0 Bft) S-SW 195 0 min 5,91 klux 2,7 C 4,0 C
17.12.2006 11:22 3,9 C 3,8 C 2,6 C 91 % 1025 hPa 0,0 l/m 0,2 m/s (0 Bft) S-SW 210 0 min 6,10 klux 2,6 C 3,9 C
17.12.2006 11:27 3,9 C 3,9 C 2,7 C 91 % 1025 hPa 0,0 l/m 0,1 m/s (0 Bft) S-SW22.5 200 0 min 6,55 klux 2,6 C 3,9 C
17.12.2006 11:32 4,0 C 3,9 C 2,7 C 90 % 1025 hPa 0,0 l/m 0,1 m/s (0 Bft) S22.5 185 0 min 8,31 klux 2,5 C 4,0 C
17.12.2006 11:37 4,1 C 4,0 C 2,6 C 89 % 1025 hPa 0,0 l/m 0,8 m/s (1 Bft) S-SO22.5 165 0 min 7,75 klux 2,5 C 4,1 C
17.12.2006 11:42 4,2 C 4,1 C 2,7 C 89 % 1025 hPa 0,0 l/m 1,4 m/s (1 Bft) S-SO22.5 160 0 min 8,88 klux 2,6 C 4,2 C
17.12.2006 11:47 4,1 C 4,1 C 2,7 C 89 % 1025 hPa 0,0 l/m 1,4 m/s (1 Bft) S-SO22.5 160 0 min 9,9 klux 2,5 C 4,1 C
17.12.2006 11:52 4,3 C 4,1 C 3,0 C 88 % 1025 hPa 0,0 l/m 0,0 m/s (0 Bft) S-SO 160 5 min 23,9 klux 2,5 C 4,3 C
17.12.2006 11:57 4,3 C 4,2 C 2,9 C 88 % 1025 hPa 0,0 l/m 0,2 m/s (0 Bft) S22.5 180 0 min 5,54 klux 2,5 C 4,3 C
17.12.2006 12:02 4,3 C 4,2 C 2,8 C 87 % 1024 hPa 0,0 l/m 0,0 m/s (0 Bft) S22.5 175 0 min 4,87 klux 2,3 C 4,3 C
17.12.2006 12:07 4,1 C 4,1 C 2,9 C 87 % 1025 hPa 0,0 l/m 1,3 m/s (1 Bft) S45 170 0 min 5,69 klux 2,1 C 4,1 C
17.12.2006 12:12 4,1 C 4,1 C 2,8 C 86 % 1024 hPa 0,0 l/m 0,4 m/s (1 Bft) S-SO22.5 165 0 min 5,76 klux 2,0 C 4,1 C
17.12.2006 12:17 4,1 C 4,0 C 2,7 C 86 % 1024 hPa 0,0 l/m 1,8 m/s (2 Bft) S-SO22.5 150 0 min 4,01 klux 2,0 C 4,0 C
17.12.2006 12:22 4,1 C 4,0 C 2,8 C 86 % 1024 hPa 0,0 l/m 0,9 m/s (1 Bft) S45 170 0 min 4,40 klux 2,0 C 4,1 C
17.12.2006 12:27 4,0 C 3,9 C 2,8 C 86 % 1024 hPa 0,0 l/m 1,3 m/s (1 Bft) S45 175 0 min 4,55 klux 1,9 C 4,0 C
17.12.2006 12:32 4,1 C 4,0 C 2,9 C 86 % 1024 hPa 0,0 l/m 0,0 m/s (0 Bft) S-SW 205 0 min 5,72 klux 2,0 C 4,1 C
17.12.2006 12:37 4,3 C 4,1 C 3,0 C 86 % 1024 hPa 0,0 l/m 0,0 m/s (0 Bft) S-SW 205 0 min 5,80 klux 2,2 C 4,3 C
17.12.2006 12:42 4,1 C 4,1 C 2,9 C 84 % 1024 hPa 0,0 l/m 2,8 m/s (2 Bft) SW22.5 235 0 min 4,66 klux 1,6 C 1,2 C
17.12.2006 12:47 4,1 C 4,1 C 2,8 C 83 % 1024 hPa 0,0 l/m 2,2 m/s (2 Bft) SW22.5 235 0 min 4,58 klux 1,5 C 2,7 C
17.12.2006 12:52 4,2 C 4,2 C 3,0 C 82 % 1024 hPa 0,0 l/m 2,8 m/s (2 Bft) W-SW45 255 0 min 5,32 klux 1,4 C 1,2 C
17.12.2006 12:57 4,1 C 4,3 C 3,0 C 80 % 1024 hPa 0,0 l/m 2,1 m/s (2 Bft) W-SW22.5 250 0 min 3,88 klux 1,0 C 3,1 C
17.12.2006 13:02 4,2 C 4,3 C 2,9 C 78 % 1024 hPa 0,0 l/m 2,1 m/s (2 Bft) W-SW22.5 250 0 min 6,72 klux 0,7 C 3,2 C
17.12.2006 13:07 4,4 C 4,4 C 3,1 C 78 % 1024 hPa 0,0 l/m 1,9 m/s (2 Bft) SW22.5 230 0 min 7,71 klux 0,9 C 4,1 C
17.12.2006 13:12 4,4 C 4,5 C 3,1 C 77 % 1024 hPa 0,0 l/m 3,8 m/s (3 Bft) W-SW45 240 0 min 7,79 klux 0,7 C -0,8 C
17.12.2006 13:17 4,4 C 4,6 C 3,2 C 75 % 1024 hPa 0,0 l/m 4,5 m/s (3 Bft) W-SW45 240 0 min 7,13 klux 0,4 C -2,2 C
17.12.2006 13:22 4,4 C 4,6 C 3,0 C 74 % 1024 hPa 0,0 l/m 4,0 m/s (3 Bft) W-SW67.5 240 0 min 4,97 klux 0,2 C -1,4 C
17.12.2006 13:27 4,2 C 4,6 C 3,0 C 74 % 1024 hPa 0,0 l/m 4,9 m/s (3 Bft) SW45 235 0 min 4,44 klux -0,0 C -3,2 C
17.12.2006 13:32 4,3 C 4,6 C 3,0 C 73 % 1024 hPa 0,0 l/m 4,2 m/s (3 Bft) W-SW45 240 0 min 4,99 klux -0,1 C -1,9 C
17.12.2006 13:37 4,3 C 4,6 C 3,1 C 73 % 1024 hPa 0,0 l/m 4,4 m/s (3 Bft) W-SW22.5 255 0 min 5,97 klux -0,1 C -2,2 C
17.12.2006 13:42 4,4 C 4,7 C 3,1 C 74 % 1024 hPa 0,0 l/m 3,7 m/s (3 Bft) W-SW22.5 245 0 min 5,39 klux 0,2 C -0,7 C
17.12.2006 13:47 4,3 C 4,6 C 3,0 C 72 % 1024 hPa 0,0 l/m 4,4 m/s (3 Bft) W-SW45 240 0 min 5,52 klux -0,3 C -2,2 C
17.12.2006 13:52 4,3 C 4,7 C 3,1 C 71 % 1024 hPa 0,0 l/m 5,3 m/s (3 Bft) W-SW45 240 0 min 9,3 klux -0,5 C -3,7 C
17.12.2006 13:57 4,4 C 4,8 C 3,2 C 68 % 1024 hPa 0,0 l/m 5,7 m/s (4 Bft) W-SW45 250 0 min 11,6 klux -1,0 C -4,1 C
17.12.2006 14:02 4,5 C 4,8 C 3,2 C 67 % 1024 hPa 0,0 l/m 5,2 m/s (3 Bft) W-SW22.5 250 0 min 8,51 klux -1,1 C -3,3 C
17.12.2006 14:07 4,5 C 4,9 C 3,3 C 68 % 1023 hPa 0,0 l/m 4,2 m/s (3 Bft) W-SW22.5 240 0 min 7,57 klux -0,9 C -1,5 C
17.12.2006 14:12 4,6 C 4,9 C 3,3 C 68 % 1023 hPa 0,0 l/m 2,9 m/s (2 Bft) W-SW22.5 250 5 min 19,2 klux -0,8 C 1,4 C
17.12.2006 14:17 4,5 C 4,9 C 3,3 C 69 % 1023 hPa 0,0 l/m 3,1 m/s (2 Bft) W-SW45 240 0 min 5,47 klux -0,7 C 0,7 C
17.12.2006 14:22 4,5 C 4,9 C 3,2 C 70 % 1023 hPa 0,0 l/m 3,8 m/s (3 Bft) W-SW22.5 250 0 min 3,64 klux -0,5 C -0,8 C
17.12.2006 14:27 4,4 C 4,9 C 3,2 C 70 % 1023 hPa 0,0 l/m 1,6 m/s (2 Bft) W-SW22.5 245 0 min 4,43 klux -0,6 C 4,4 C
17.12.2006 14:32 4,3 C 5,0 C 3,1 C 69 % 1023 hPa 0,0 l/m 3,3 m/s (2 Bft) SW67.5 230 0 min 3,77 klux -0,9 C 0,1 C
17.12.2006 14:37 4,2 C 4,9 C 3,0 C 69 % 1023 hPa 0,0 l/m 4,4 m/s (3 Bft) W-SW22.5 250 0 min 3,10 klux -1,0 C -2,3 C
17.12.2006 14:42 4,1 C 4,9 C 3,0 C 69 % 1023 hPa 0,0 l/m 4,4 m/s (3 Bft) SW45 235 0 min 3,53 klux -1,1 C -2,5 C
17.12.2006 14:47 4,1 C 4,8 C 3,0 C 70 % 1023 hPa 0,0 l/m 5,4 m/s (3 Bft) W-SW45 245 0 min 2,49 klux -0,9 C -4,1 C
17.12.2006 14:52 4,0 C 4,7 C 2,8 C 70 % 1023 hPa 0,0 l/m 4,2 m/s (3 Bft) W-SW45 250 0 min 1,62 klux -1,0 C -2,2 C
17.12.2006 14:57 4,0 C 4,6 C 2,8 C 70 % 1023 hPa 0,0 l/m 4,1 m/s (3 Bft) W-SW45 245 0 min 1,47 klux -1,0 C -2,1 C
17.12.2006 15:02 3,8 C 4,6 C 2,8 C 72 % 1023 hPa 0,0 l/m 3,5 m/s (3 Bft) W-SW45 255 0 min 1,90 klux -0,8 C -0,9 C
17.12.2006 15:07 3,8 C 4,5 C 2,7 C 72 % 1023 hPa 0,0 l/m 3,8 m/s (3 Bft) W-SW22.5 250 0 min 1,33 klux -0,8 C -1,6 C
17.12.2006 15:12 3,8 C 4,4 C 2,6 C 71 % 1023 hPa 0,0 l/m 3,9 m/s (3 Bft) W-SW22.5 245 0 min 924 lux -1,0 C -1,9 C
17.12.2006 15:17 3,8 C 4,4 C 2,7 C 71 % 1023 hPa 0,0 l/m 3,9 m/s (3 Bft) W-SW45 245 0 min 958 lux -1,0 C -1,8 C
17.12.2006 15:22 3,8 C 4,3 C 2,6 C 72 % 1023 hPa 0,0 l/m 3,1 m/s (2 Bft) SW45 235 0 min 588 lux -0,8 C -0,1 C
17.12.2006 15:27 3,8 C 4,2 C 2,7 C 72 % 1023 hPa 0,0 l/m 2,5 m/s (2 Bft) SW22.5 235 0 min 583 lux -0,8 C 1,5 C
17.12.2006 15:32 3,8 C 4,2 C 2,6 C 73 % 1023 hPa 0,0 l/m 1,8 m/s (2 Bft) W-SW22.5 240 0 min 477 lux -0,6 C 3,6 C
17.12.2006 15:37 3,8 C 4,2 C 2,6 C 74 % 1023 hPa 0,0 l/m 1,7 m/s (2 Bft) SW45 225 0 min 456 lux -0,4 C 3,8 C
17.12.2006 15:42 3,8 C 4,2 C 2,6 C 74 % 1023 hPa 0,0 l/m 2,6 m/s (2 Bft) SW22.5 220 0 min 357 lux -0,4 C 1,4 C
17.12.2006 15:47 3,8 C 4,2 C 2,6 C 74 % 1023 hPa 0,0 l/m 1,9 m/s (2 Bft) SW22.5 215 0 min 280 lux -0,4 C 3,4 C
17.12.2006 15:52 3,8 C 4,1 C 2,5 C 75 % 1023 hPa 0,0 l/m 3,1 m/s (2 Bft) SW45 235 0 min 308 lux -0,2 C -0,1 C
17.12.2006 15:57 3,8 C 4,1 C 2,5 C 75 % 1023 hPa 0,0 l/m 2,6 m/s (2 Bft) SW45 220 0 min 240 lux -0,2 C 1,2 C
17.12.2006 16:02 3,7 C 4,1 C 2,5 C 76 % 1023 hPa 0,0 l/m 2,4 m/s (2 Bft) S-SW45 200 0 min 123 lux -0,1 C 1,6 C
17.12.2006 16:07 3,7 C 4,1 C 2,6 C 76 % 1023 hPa 0,0 l/m 2,2 m/s (2 Bft) SW22.5 230 0 min 103 lux -0,1 C 2,3 C
17.12.2006 16:12 3,7 C 4,1 C 2,6 C 77 % 1023 hPa 0,0 l/m 0,3 m/s (0 Bft) SW 215 0 min 112 lux 0,1 C 3,7 C
17.12.2006 16:17 3,7 C 4,0 C 2,5 C 78 % 1023 hPa 0,0 l/m 2,1 m/s (2 Bft) S-SW45 210 0 min 71 lux 0,2 C 2,5 C
17.12.2006 16:22 3,7 C 4,0 C 2,6 C 79 % 1023 hPa 0,0 l/m 0,5 m/s (1 Bft) SW22.5 215 0 min 66 lux 0,4 C 3,7 C
17.12.2006 16:27 3,7 C 4,0 C 2,5 C 79 % 1023 hPa 0,0 l/m 2,3 m/s (2 Bft) S45 190 0 min 39 lux 0,4 C 1,9 C
17.12.2006 16:32 3,6 C 3,9 C 2,4 C 80 % 1023 hPa 0,0 l/m 2,3 m/s (2 Bft) SW22.5 215 0 min 27 lux 0,5 C 2,0 C
17.12.2006 16:37 3,6 C 3,9 C 2,4 C 80 % 1023 hPa 0,0 l/m 1,9 m/s (2 Bft) SW45 230 0 min 19 lux 0,5 C 3,3 C
17.12.2006 16:42 3,4 C 3,9 C 2,4 C 80 % 1023 hPa 0,0 l/m 3,6 m/s (3 Bft) W-SW22.5 240 0 min 15 lux 0,3 C -1,7 C
17.12.2006 16:47 3,5 C 3,8 C 2,4 C 80 % 1023 hPa 0,0 l/m 2,3 m/s (2 Bft) SW45 235 0 min 11 lux 0,4 C 1,8 C
17.12.2006 16:52 3,4 C 3,7 C 2,4 C 81 % 1023 hPa 0,0 l/m 4,4 m/s (3 Bft) SW45 225 0 min 4 lux 0,5 C -3,3 C
17.12.2006 16:57 3,3 C 3,7 C 2,3 C 81 % 1023 hPa 0,0 l/m 4,0 m/s (3 Bft) W-SW67.5 240 0 min 1 lux 0,4 C -2,7 C
17.12.2006 17:02 3,3 C 3,6 C 2,3 C 82 % 1023 hPa 0,0 l/m 2,5 m/s (2 Bft) SW45 220 0 min 0 lux 0,5 C 1,1 C
17.12.2006 17:07 3,2 C 3,6 C 2,3 C 82 % 1024 hPa 0,4 l/m 2,1 m/s (2 Bft) W-SW45 240 0 min 0 lux 0,4 C 2,1 C
17.12.2006 17:12 3,3 C 3,6 C 2,3 C 83 % 1024 hPa 0,0 l/m 2,7 m/s (2 Bft) W-SW45 240 0 min 0 lux 0,7 C 0,5 C
17.12.2006 17:17 3,2 C 3,5 C 2,3 C 83 % 1024 hPa 0,0 l/m 1,0 m/s (1 Bft) W-SW22.5 250 0 min 0 lux 0,6 C 3,2 C
17.12.2006 17:22 3,3 C 3,5 C 2,3 C 83 % 1024 hPa 0,0 l/m 2,9 m/s (2 Bft) SW45 235 0 min 0 lux 0,7 C -0,2 C
17.12.2006 17:27 3,3 C 3,5 C 2,2 C 84 % 1024 hPa 0,0 l/m 2,9 m/s (2 Bft) SW22.5 230 0 min 0 lux 0,9 C -0,2 C
17.12.2006 17:32 3,2 C 3,4 C 2,1 C 84 % 1024 hPa 0,0 l/m 1,6 m/s (1 Bft) SW45 235 0 min 0 lux 0,8 C 3,2 C
17.12.2006 17:37 3,1 C 3,4 C 2,1 C 84 % 1024 hPa 0,0 l/m 2,5 m/s (2 Bft) W-SW22.5 240 0 min 0 lux 0,7 C 0,7 C
17.12.2006 17:42 3,2 C 3,3 C 2,1 C 85 % 1024 hPa 0,0 l/m 0,2 m/s (0 Bft) W-SW 240 0 min 0 lux 0,9 C 3,2 C
17.12.2006 17:47 3,1 C 3,3 C 2,2 C 85 % 1024 hPa 0,0 l/m 1,3 m/s (1 Bft) SW22.5 225 0 min 0 lux 0,8 C 3,1 C
17.12.2006 17:52 3,1 C 3,3 C 2,0 C 86 % 1024 hPa 0,0 l/m 2,8 m/s (2 Bft) SW45 225 0 min 0 lux 1,0 C -0,1 C
17.12.2006 17:57 3,0 C 3,2 C 2,0 C 86 % 1024 hPa 0,4 l/m 2,8 m/s (2 Bft) SW45 225 0 min 0 lux 0,9 C -0,2 C
17.12.2006 18:02 3,0 C 3,2 C 2,0 C 86 % 1024 hPa 0,0 l/m 1,9 m/s (2 Bft) SW22.5 235 0 min 0 lux 0,9 C 2,4 C
17.12.2006 18:07 3,0 C 3,1 C 2,1 C 87 % 1024 hPa 0,0 l/m 1,3 m/s (1 Bft) W-SW22.5 250 0 min 0 lux 1,1 C 3,0 C
17.12.2006 18:12 3,0 C 3,2 C 2,1 C 87 % 1024 hPa 0,0 l/m 0,0 m/s (0 Bft) W 260 0 min 0 lux 1,1 C 3,0 C
17.12.2006 18:17 3,0 C 3,2 C 2,0 C 87 % 1024 hPa 0,0 l/m 0,0 m/s (0 Bft) W-SW 250 0 min 0 lux 1,1 C 3,0 C
17.12.2006 18:22 3,0 C 3,1 C 2,1 C 87 % 1023 hPa 0,0 l/m 0,0 m/s (0 Bft) W-SW 250 0 min 0 lux 1,1 C 3,0 C
17.12.2006 18:27 3,0 C 3,2 C 1,9 C 87 % 1023 hPa 0,0 l/m 0,0 m/s (0 Bft) W-SW 250 0 min 0 lux 1,1 C 3,0 C
17.12.2006 18:32 3,0 C 3,2 C 2,1 C 88 % 1023 hPa 0,0 l/m 0,0 m/s (0 Bft) SW 225 0 min 0 lux 1,2 C 3,0 C
17.12.2006 18:37 3,0 C 3,2 C 2,0 C 88 % 1023 hPa 0,0 l/m 0,2 m/s (0 Bft) SW 220 0 min 0 lux 1,2 C 3,0 C
17.12.2006 18:42 3,0 C 3,2 C 2,0 C 88 % 1024 hPa 0,0 l/m 1,0 m/s (1 Bft) SW22.5 235 0 min 0 lux 1,2 C 3,0 C
17.12.2006 18:47 3,0 C 3,1 C 2,0 C 88 % 1023 hPa 0,0 l/m 1,3 m/s (1 Bft) W-SW22.5 250 0 min 0 lux 1,2 C 3,0 C
17.12.2006 18:52 3,0 C 3,1 C 2,0 C 88 % 1023 hPa 0,0 l/m 1,6 m/s (1 Bft) SW45 225 0 min 0 lux 1,2 C 3,0 C
17.12.2006 18:57 3,0 C 3,1 C 1,9 C 88 % 1023 hPa 0,0 l/m 1,7 m/s (2 Bft) SW22.5 225 0 min 0 lux 1,2 C 3,0 C
17.12.2006 19:02 2,9 C 3,0 C 2,0 C 89 % 1023 hPa 0,0 l/m 2,1 m/s (2 Bft) W-SW22.5 250 0 min 0 lux 1,3 C 1,8 C
17.12.2006 19:07 2,9 C 3,0 C 1,9 C 89 % 1023 hPa 0,0 l/m 2,6 m/s (2 Bft) W-SW45 245 0 min 0 lux 1,3 C 0,4 C
17.12.2006 19:12 2,9 C 3,0 C 1,9 C 89 % 1023 hPa 0,0 l/m 3,2 m/s (2 Bft) SW67.5 230 0 min 0 lux 1,3 C -1,3 C
17.12.2006 19:17 2,8 C 3,0 C 1,9 C 89 % 1023 hPa 0,0 l/m 2,8 m/s (2 Bft) W-SW45 245 0 min 0 lux 1,2 C -0,4 C
17.12.2006 19:22 2,8 C 2,9 C 1,9 C 89 % 1023 hPa 0,0 l/m 2,4 m/s (2 Bft) W-SW45 245 0 min 0 lux 1,2 C 0,6 C
17.12.2006 19:27 2,8 C 2,9 C 1,9 C 89 % 1024 hPa 0,0 l/m 2,2 m/s (2 Bft) SW22.5 230 0 min 0 lux 1,2 C 1,4 C
17.12.2006 19:32 2,8 C 2,9 C 1,9 C 89 % 1024 hPa 0,0 l/m 2,3 m/s (2 Bft) W-SW45 250 0 min 0 lux 1,2 C 1,0 C
17.12.2006 19:37 2,8 C 2,9 C 1,7 C 89 % 1024 hPa 0,0 l/m 2,8 m/s (2 Bft) W-SW45 245 0 min 0 lux 1,2 C -0,3 C
17.12.2006 19:42 2,8 C 2,9 C 1,9 C 89 % 1024 hPa 0,0 l/m 1,9 m/s (2 Bft) W-SW 240 0 min 0 lux 1,2 C 2,5 C
17.12.2006 19:47 2,8 C 2,9 C 1,9 C 89 % 1024 hPa 0,4 l/m 0,2 m/s (0 Bft) W-SW 250 0 min 0 lux 1,2 C 2,8 C
17.12.2006 19:52 2,8 C 2,9 C 1,9 C 89 % 1024 hPa 0,0 l/m 1,5 m/s (1 Bft) W-SW 240 0 min 0 lux 1,2 C 2,8 C
17.12.2006 19:57 2,8 C 2,9 C 1,8 C 89 % 1024 hPa 0,0 l/m 0,0 m/s (0 Bft) W-SW 240 0 min 0 lux 1,2 C 2,8 C
17.12.2006 20:02 2,7 C 2,9 C 1,9 C 90 % 1024 hPa 0,0 l/m 0,8 m/s (1 Bft) W-SW 240 0 min 0 lux 1,2 C 2,7 C
17.12.2006 20:07 2,8 C 2,9 C 1,9 C 90 % 1024 hPa 0,0 l/m 1,3 m/s (1 Bft) W-SW22.5 250 0 min 0 lux 1,3 C 2,8 C
17.12.2006 20:12 2,7 C 2,9 C 1,9 C 90 % 1024 hPa 0,0 l/m 2,1 m/s (2 Bft) W22.5 275 0 min 0 lux 1,2 C 1,6 C
17.12.2006 20:17 2,7 C 2,9 C 1,9 C 90 % 1024 hPa 0,0 l/m 2,1 m/s (2 Bft) W-SW22.5 245 0 min 0 lux 1,2 C 1,7 C
17.12.2006 20:22 2,7 C 2,9 C 1,8 C 91 % 1024 hPa 0,0 l/m 1,5 m/s (1 Bft) W-SW22.5 245 0 min 0 lux 1,4 C 2,7 C
17.12.2006 20:27 2,7 C 2,9 C 1,9 C 91 % 1024 hPa 0,4 l/m 1,2 m/s (1 Bft) W-SW22.5 250 0 min 0 lux 1,4 C 2,7 C
17.12.2006 20:32 2,7 C 2,9 C 1,8 C 91 % 1024 hPa 0,0 l/m 0,2 m/s (0 Bft) W-SW 240 0 min 0 lux 1,4 C 2,7 C
17.12.2006 20:37 2,8 C 2,9 C 1,8 C 91 % 1024 hPa 0,0 l/m 1,1 m/s (1 Bft) W-SW 245 0 min 0 lux 1,5 C 2,8 C
17.12.2006 20:42 2,8 C 2,9 C 1,9 C 92 % 1024 hPa 0,0 l/m 0,2 m/s (0 Bft) W-SW 250 0 min 0 lux 1,6 C 2,8 C
17.12.2006 20:47 2,7 C 2,9 C 1,9 C 92 % 1024 hPa 0,0 l/m 0,0 m/s (0 Bft) W-SW 245 0 min 0 lux 1,5 C 2,7 C
17.12.2006 20:52 2,8 C 2,9 C 1,9 C 92 % 1024 hPa 0,0 l/m 0,0 m/s (0 Bft) W-SW 245 0 min 0 lux 1,6 C 2,8 C
17.12.2006 20:57 2,7 C 2,9 C 1,9 C 92 % 1024 hPa 0,0 l/m 0,0 m/s (0 Bft) W-SW 245 0 min 0 lux 1,5 C 2,7 C
17.12.2006 21:02 2,7 C 2,9 C 1,9 C 92 % 1024 hPa 0,0 l/m 0,0 m/s (0 Bft) W-SW 245 0 min 0 lux 1,5 C 2,7 C
17.12.2006 21:07 2,7 C 2,9 C 1,8 C 92 % 1024 hPa 0,0 l/m 0,0 m/s (0 Bft) W-SW 245 0 min 0 lux 1,5 C 2,7 C
17.12.2006 21:12 2,7 C 2,9 C 1,9 C 92 % 1024 hPa 0,0 l/m 1,1 m/s (1 Bft) W 265 0 min 0 lux 1,5 C 2,7 C
17.12.2006 21:17 2,8 C 2,9 C 1,8 C 92 % 1024 hPa 0,0 l/m 1,1 m/s (1 Bft) W 270 0 min 0 lux 1,6 C 2,8 C
17.12.2006 21:22 2,8 C 2,8 C 1,8 C 93 % 1024 hPa 0,0 l/m 0,2 m/s (0 Bft) W-SW 255 0 min 0 lux 1,8 C 2,8 C
17.12.2006 21:27 2,9 C 2,9 C 1,9 C 93 % 1024 hPa 0,0 l/m 0,2 m/s (0 Bft) W-SW 245 0 min 0 lux 1,9 C 2,9 C
17.12.2006 21:32 2,9 C 2,9 C 1,9 C 93 % 1024 hPa 0,0 l/m 0,0 m/s (0 Bft) W-SW 245 0 min 0 lux 1,9 C 2,9 C
17.12.2006 21:37 2,9 C 2,9 C 1,9 C 93 % 1024 hPa 0,0 l/m 0,0 m/s (0 Bft) W-SW 245 0 min 0 lux 1,9 C 2,9 C
17.12.2006 21:42 2,9 C 2,9 C 2,0 C 93 % 1024 hPa 0,0 l/m 0,0 m/s (0 Bft) W-SW 245 0 min 0 lux 1,9 C 2,9 C
17.12.2006 21:47 2,9 C 3,0 C 1,9 C 93 % 1024 hPa 0,0 l/m 0,0 m/s (0 Bft) W-SW 245 0 min 0 lux 1,9 C 2,9 C
17.12.2006 21:52 2,8 C 2,9 C 1,6 C 93 % 1024 hPa 0,0 l/m 0,0 m/s (0 Bft) W-SW 245 0 min 0 lux 1,8 C 2,8 C
17.12.2006 21:57 2,3 C 2,8 C 1,0 C 92 % 1024 hPa 0,0 l/m 0,0 m/s (0 Bft) W-SW 245 0 min 0 lux 1,1 C 2,3 C
17.12.2006 22:02 2,4 C 2,6 C 1,2 C 92 % 1024 hPa 0,0 l/m 0,0 m/s (0 Bft) W-SW 245 0 min 0 lux 1,2 C 2,4 C
17.12.2006 22:07 2,2 C 2,6 C 1,2 C 92 % 1024 hPa 0,0 l/m 0,0 m/s (0 Bft) W-SW 245 0 min 0 lux 1,0 C 2,2 C
17.12.2006 22:12 2,0 C 2,5 C 0,7 C 92 % 1024 hPa 0,0 l/m 1,0 m/s (1 Bft) W 260 0 min 0 lux 0,8 C 2,0 C
17.12.2006 22:17 2,1 C 2,4 C 1,1 C 92 % 1024 hPa 0,0 l/m 1,2 m/s (1 Bft) W22.5 270 0 min 0 lux 0,9 C 2,1 C
17.12.2006 22:22 2,1 C 2,4 C 1,0 C 92 % 1024 hPa 0,0 l/m 1,3 m/s (1 Bft) W 280 0 min 0 lux 0,9 C 2,1 C
17.12.2006 22:27 2,3 C 2,3 C 1,2 C 93 % 1024 hPa 0,0 l/m 1,5 m/s (1 Bft) W22.5 265 0 min 0 lux 1,3 C 2,3 C
17.12.2006 22:32 2,3 C 2,3 C 1,1 C 93 % 1024 hPa 0,0 l/m 1,3 m/s (1 Bft) W22.5 260 0 min 0 lux 1,3 C 2,3 C
17.12.2006 22:37 2,2 C 2,2 C 1,0 C 93 % 1024 hPa 0,0 l/m 1,4 m/s (1 Bft) W-SW22.5 250 0 min 0 lux 1,2 C 2,2 C
17.12.2006 22:42 2,0 C 2,2 C 0,7 C 93 % 1024 hPa 0,0 l/m 1,0 m/s (1 Bft) W22.5 260 0 min 0 lux 1,0 C 2,0 C
17.12.2006 22:47 2,1 C 2,1 C 1,0 C 93 % 1024 hPa 0,0 l/m 1,4 m/s (1 Bft) W-SW22.5 250 0 min 0 lux 1,1 C 2,1 C
17.12.2006 22:52 2,2 C 2,1 C 1,0 C 94 % 1024 hPa 0,0 l/m 1,2 m/s (1 Bft) W-SW22.5 250 0 min 0 lux 1,3 C 2,2 C
17.12.2006 22:57 2,2 C 2,1 C 1,0 C 94 % 1024 hPa 0,0 l/m 1,7 m/s (2 Bft) W-SW22.5 255 0 min 0 lux 1,3 C 2,2 C
17.12.2006 23:02 2,2 C 2,0 C 1,0 C 94 % 1024 hPa 0,0 l/m 2,7 m/s (2 Bft) W-SW22.5 250 0 min 0 lux 1,3 C -0,7 C
17.12.2006 23:07 2,2 C 2,0 C 1,0 C 94 % 1024 hPa 0,0 l/m 2,2 m/s (2 Bft) W22.5 260 0 min 0 lux 1,3 C 0,8 C
17.12.2006 23:12 2,2 C 2,0 C 1,0 C 94 % 1024 hPa 0,0 l/m 1,6 m/s (2 Bft) W22.5 265 0 min 0 lux 1,3 C 2,2 C
17.12.2006 23:17 2,3 C 2,0 C 1,0 C 94 % 1024 hPa 0,0 l/m 1,4 m/s (1 Bft) W 280 0 min 0 lux 1,4 C 2,3 C
17.12.2006 23:22 2,1 C 2,0 C 0,9 C 94 % 1024 hPa 0,0 l/m 0,6 m/s (1 Bft) W 280 0 min 0 lux 1,2 C 2,1 C
17.12.2006 23:27 2,0 C 1,9 C 1,0 C 94 % 1024 hPa 0,0 l/m 0,0 m/s (0 Bft) W 280 0 min 0 lux 1,1 C 2,0 C
17.12.2006 23:32 1,9 C 1,9 C 1,0 C 95 % 1024 hPa 0,0 l/m 0,0 m/s (0 Bft) W 280 0 min 0 lux 1,2 C 1,9 C
17.12.2006 23:37 1,6 C 1,8 C 0,8 C 95 % 1024 hPa 0,0 l/m 0,0 m/s (0 Bft) W 280 0 min 0 lux 0,9 C 1,6 C
17.12.2006 23:42 1,5 C 1,7 C 0,4 C 95 % 1024 hPa 0,0 l/m 0,0 m/s (0 Bft) W 280 0 min 0 lux 0,8 C 1,5 C
17.12.2006 23:47 1,2 C 1,6 C 0,4 C 94 % 1024 hPa 0,0 l/m 0,0 m/s (0 Bft) W 280 0 min 0 lux 0,3 C 1,2 C
17.12.2006 23:52 1,2 C 1,5 C 0,6 C 94 % 1024 hPa 0,0 l/m 0,0 m/s (0 Bft) W 280 0 min 0 lux 0,3 C 1,2 C
17.12.2006 23:57 1,2 C 1,4 C 0,5 C 94 % 1024 hPa 0,0 l/m 0,0 m/s (0 Bft) W 280 0 min 0 lux 0,3 C 1,2 C
_ Min-Zeit 06:12 05:32 05:27 14:02 00:02 - 04:12 - - - - 14:02 13:57
Minimum _ 0,3 C 0,6 C -0,7 C 67 % 1023 hPa - 0,0 m/s (0 Bft) - - - - -1,1 C -4,1 C
_ Max-Zeit 00:02 14:32 14:07 04:37 02:42 17:07 13:57 - - 09:57 11:52 00:47 00:02
Maximum _ 4,6 C 5,0 C 3,3 C 95 % 1025 hPa 0,4 l/m 5,7 m/s
W-SW (4 Bft)
- - 5 min 23,9 klux 3,2 C 4,6 C
Durchschnitt _ 2,7 C 2,8 C 1,6 C 89 % 1024 hPa #1,4 l/m 1,3 m/s (1 Bft) W-SW - #15 min. 1,57 klux 1,0 C 1,7 C